TimeCDT,TemperatureF,Dew PointF,Humidity,Sea Level PressureIn,VisibilityMPH,Wind Direction,Wind SpeedMPH,Gust SpeedMPH,PrecipitationIn,Events,Conditions,WindDirDegrees,DateUTC
12:15 AM,75.6,73.0,92,30.16,4.0,Calm,Calm,-,N/A,,Clear,0,2013-07-15 05:15:00
12:35 AM,75.0,72.5,92,30.16,5.0,Calm,Calm,-,N/A,,Clear,0,2013-07-15 05:35:00
12:55 AM,75.2,72.7,92,30.16,7.0,Calm,Calm,-,N/A,,Clear,0,2013-07-15 05:55:00
1:15 AM,74.3,71.6,91,30.16,7.0,Calm,Calm,-,N/A,,Clear,0,2013-07-15 06:15:00
1:35 AM,73.8,71.2,92,30.16,7.0,Calm,Calm,-,N/A,,Clear,0,2013-07-15 06:35:00
1:55 AM,74.3,71.8,92,30.16,5.0,Calm,Calm,-,N/A,,Clear,0,2013-07-15 06:55:00
2:15 AM,74.3,71.8,92,30.17,5.0,Calm,Calm,-,N/A,,Clear,0,2013-07-15 07:15:00
2:35 AM,75.6,72.5,90,30.17,10.0,Calm,Calm,-,N/A,,Clear,0,2013-07-15 07:35:00
2:55 AM,75.6,72.1,89,30.17,10.0,Calm,Calm,-,N/A,,Clear,0,2013-07-15 07:55:00
3:15 AM,74.8,71.8,90,30.17,10.0,ESE,3.5,-,N/A,,Clear,120,2013-07-15 08:15:00
3:35 AM,76.3,72.1,87,30.17,10.0,Calm,Calm,-,N/A,,Clear,0,2013-07-15 08:35:00
3:55 AM,76.5,72.1,86,30.17,10.0,ESE,3.5,-,N/A,,Clear,120,2013-07-15 08:55:00
4:15 AM,76.3,72.1,87,30.17,10.0,Calm,Calm,-,N/A,,Clear,0,2013-07-15 09:15:00
4:35 AM,75.9,71.8,87,30.17,10.0,Calm,Calm,-,N/A,,Clear,0,2013-07-15 09:35:00
4:55 AM,75.2,71.6,89,30.17,10.0,Calm,Calm,-,N/A,,Clear,0,2013-07-15 09:55:00
5:15 AM,75.4,71.8,89,30.17,10.0,ESE,3.5,-,N/A,,Clear,110,2013-07-15 10:15:00
5:35 AM,75.4,71.8,89,30.19,10.0,Calm,Calm,-,N/A,,Clear,0,2013-07-15 10:35:00
5:55 AM,74.5,71.6,91,30.20,7.0,Calm,Calm,-,N/A,,Clear,0,2013-07-15 10:55:00
6:15 AM,75.4,72.1,90,30.20,10.0,Calm,Calm,-,N/A,,Clear,0,2013-07-15 11:15:00
6:35 AM,76.1,72.5,89,30.21,10.0,East,3.5,-,N/A,,Clear,90,2013-07-15 11:35:00
6:55 AM,77.4,73.2,87,30.22,10.0,ESE,3.5,-,N/A,,Clear,110,2013-07-15 11:55:00
7:15 AM,78.4,73.6,85,30.22,10.0,ESE,4.6,-,N/A,,Clear,120,2013-07-15 12:15:00
7:35 AM,79.9,73.8,81,30.22,10.0,SE,5.8,-,N/A,,Clear,140,2013-07-15 12:35:00
7:55 AM,81.1,73.9,79,30.23,10.0,SE,6.9,-,N/A,,Clear,140,2013-07-15 12:55:00
8:15 AM,82.0,73.9,76,30.23,10.0,SE,8.1,-,N/A,,Clear,130,2013-07-15 13:15:00
8:35 AM,83.3,74.1,74,30.23,10.0,SSE,9.2,-,N/A,,Clear,160,2013-07-15 13:35:00
8:55 AM,84.2,74.3,72,30.23,10.0,South,9.2,-,N/A,,Clear,170,2013-07-15 13:55:00
9:15 AM,84.4,74.5,72,30.23,10.0,SSE,5.8,-,N/A,,Clear,160,2013-07-15 14:15:00
9:35 AM,84.9,74.5,71,30.24,10.0,SE,6.9,-,N/A,,Clear,140,2013-07-15 14:35:00
9:55 AM,85.8,74.7,69,30.24,10.0,SSE,5.8,-,N/A,,Clear,160,2013-07-15 14:55:00
10:15 AM,86.4,74.1,67,30.25,10.0,South,4.6,-,N/A,,Clear,170,2013-07-15 15:15:00
10:35 AM,87.1,73.8,64,30.25,10.0,Calm,Calm,-,N/A,,Clear,0,2013-07-15 15:35:00
10:55 AM,88.3,74.5,63,30.25,10.0,SE,4.6,-,N/A,,Clear,130,2013-07-15 15:55:00
11:15 AM,87.1,74.1,65,30.25,10.0,Calm,Calm,-,N/A,,Clear,0,2013-07-15 16:15:00
11:35 AM,86.2,73.8,66,30.25,10.0,South,4.6,-,N/A,,Clear,170,2013-07-15 16:35:00
11:55 AM,87.8,73.8,63,30.25,10.0,South,4.6,-,N/A,,Clear,180,2013-07-15 16:55:00
12:15 PM,86.0,74.1,68,30.25,10.0,Calm,Calm,-,N/A,,Clear,0,2013-07-15 17:15:00
12:35 PM,85.6,75.4,71,30.25,10.0,Calm,Calm,-,N/A,Rain,Light Rain,0,2013-07-15 17:35:00
12:55 PM,86.5,73.9,66,30.24,10.0,Calm,Calm,-,N/A,,Clear,0,2013-07-15 17:55:00
1:15 PM,86.0,75.7,71,30.24,10.0,Calm,Calm,-,N/A,Rain,Light Rain,0,2013-07-15 18:15:00
1:35 PM,85.5,76.1,73,30.25,7.0,SE,5.8,-,N/A,Rain,Rain,130,2013-07-15 18:35:00
1:55 PM,81.0,74.7,81,30.24,1.8,East,4.6,-,0.13,Rain,Heavy Rain,80,2013-07-15 18:55:00
2:15 PM,82.6,76.8,83,30.23,10.0,Calm,Calm,-,0.01,Rain,Light Rain,0,2013-07-15 19:15:00
2:35 PM,85.1,77.0,77,30.23,10.0,ESE,3.5,-,0.01,,Clear,110,2013-07-15 19:35:00
2:55 PM,87.4,76.5,70,30.22,10.0,ESE,3.5,-,0.01,,Clear,110,2013-07-15 19:55:00
3:15 PM,87.6,77.0,71,30.22,10.0,ENE,3.5,-,N/A,,Clear,70,2013-07-15 20:15:00
3:35 PM,90.0,76.1,64,30.21,10.0,East,5.8,-,N/A,,Clear,90,2013-07-15 20:35:00
3:55 PM,87.1,75.4,68,30.21,10.0,East,6.9,-,N/A,,Clear,90,2013-07-15 20:55:00
4:15 PM,87.3,75.6,68,30.20,10.0,ESE,4.6,-,N/A,,Clear,120,2013-07-15 21:15:00
4:35 PM,88.3,75.0,65,30.21,10.0,ESE,3.5,-,N/A,,Clear,110,2013-07-15 21:35:00
4:55 PM,89.1,75.0,63,30.20,10.0,East,3.5,-,N/A,,Clear,100,2013-07-15 21:55:00
5:15 PM,88.9,75.2,64,30.20,10.0,ESE,5.8,-,N/A,,Clear,110,2013-07-15 22:15:00
5:35 PM,88.9,75.2,64,30.20,10.0,ESE,4.6,-,N/A,,Clear,120,2013-07-15 22:35:00
5:55 PM,88.0,74.3,64,30.20,10.0,ESE,8.1,-,N/A,,Clear,110,2013-07-15 22:55:00
6:15 PM,86.0,75.6,71,30.20,10.0,ENE,3.5,-,N/A,,Clear,60,2013-07-15 23:15:00
6:35 PM,86.5,76.1,71,30.20,10.0,Calm,Calm,-,N/A,,Clear,0,2013-07-15 23:35:00
6:55 PM,87.8,76.6,69,30.20,10.0,Calm,Calm,-,N/A,,Clear,0,2013-07-15 23:55:00
7:15 PM,86.9,76.3,71,30.20,10.0,ESE,5.8,-,N/A,,Clear,120,2013-07-16 00:15:00
7:35 PM,86.0,74.1,68,30.21,10.0,SE,3.5,-,N/A,,Clear,130,2013-07-16 00:35:00
7:55 PM,84.9,74.3,70,30.21,10.0,Calm,Calm,-,N/A,,Clear,0,2013-07-16 00:55:00
8:15 PM,83.3,74.7,75,30.21,10.0,Calm,Calm,-,N/A,,Clear,0,2013-07-16 01:15:00
8:35 PM,82.4,74.7,77,30.22,10.0,Calm,Calm,-,N/A,,Clear,0,2013-07-16 01:35:00
8:55 PM,81.7,75.2,81,30.23,10.0,ESE,3.5,-,N/A,,Clear,110,2013-07-16 01:55:00
9:15 PM,81.0,75.2,83,30.23,10.0,ESE,4.6,-,N/A,,Clear,120,2013-07-16 02:15:00
9:35 PM,81.5,74.7,80,30.24,10.0,ESE,3.5,-,N/A,,Clear,120,2013-07-16 02:35:00
9:55 PM,81.0,74.5,81,30.25,10.0,ESE,3.5,-,N/A,,Clear,120,2013-07-16 02:55:00
10:15 PM,80.4,74.3,82,30.25,10.0,Calm,Calm,-,N/A,,Clear,0,2013-07-16 03:15:00
10:35 PM,79.9,74.3,83,30.26,10.0,East,3.5,-,N/A,,Clear,100,2013-07-16 03:35:00
10:55 PM,79.7,74.3,83,30.26,10.0,East,3.5,-,N/A,,Clear,100,2013-07-16 03:55:00
11:15 PM,79.2,74.3,85,30.26,10.0,East,3.5,-,N/A,,Clear,90,2013-07-16 04:15:00
11:35 PM,78.8,73.9,85,30.26,10.0,Calm,Calm,-,N/A,,Clear,0,2013-07-16 04:35:00
11:55 PM,77.0,73.6,89,30.26,10.0,Calm,Calm,-,N/A,,Clear,0,2013-07-16 04:55:00